User: anonymous   Login
Location: *
(41.7492°S, 135.4150°W)
Time: 08:50:28
(UTC+00:00)
Language:

USA 306 - Orbit

View from above orbital plane
View from above orbital plane
View from above satellite
View from above satellite

Ground track
Ground track

The orbit data is extracted from the following two-line orbital elements,

1 45874U 20046B   21337.75967885 0.00005000  00000-0  39465-3 0    09
2 45874  53.9880 248.9572 0010548 176.6019 183.3980 15.00218464    01
Epoch (UTC): 03 December 2021 18:13:56
Eccentricity: 0.0010548
inclination: 53.9880°
perigee height: 559 km
apogee height: 573 km
right ascension of ascending node: 248.9572°
argument of perigee: 176.6019°
revolutions per day: 15.00218464
mean anomaly at epoch: 183.3980°
orbit number at epoch: 0

The dashed part of the orbit path shows where the satellite is in the earth's shadow,  

DLR